Regional Weather Roundup
Issued by NWS

Home | Current Version | Previous Version | Text Only | Print | Product List | Glossary Off
Versions: 1 2 3 4 5 6 7 8 9 10 11 12 13 14 15 16 17 18 19 20 21 22 23 24 25 26 27 28 29 30 31 32 33 34 35 36 37 38 39 40 41 42 43 44 45 46 47 48 49 50

000
ASUS43 KDTX 250510
RWRMI
MICHIGAN HOURLY REGIONAL WEATHER ROUNDUP
NATIONAL WEATHER SERVICE DETROIT/PONTIAC MI
100 AM EDT SAT OCT 25 2014

NOTE: "FAIR" INDICATES FEW OR NO CLOUDS BELOW 12,000 FEET WITH NO
SIGNIFICANT WEATHER AND/OR OBSTRUCTION TO VISIBILITY.

MIZ047>049-052>055-059>063-066>070-074>076-081>083-250600-
SOUTHEAST LOWER MICHIGAN

CITY           SKY/WX    TMP DP  RH WIND       PRES   REMARKS
ADRIAN         PTCLDY    47  45  93 W5        29.96F FOG
ALMA           FOG       39  39  98 S3        29.92F VSB 1/4
ANN ARBOR      FOG       36  34  92 CALM      29.95S VSB 3/4
BAD AXE          N/A     43  43 100 SW5       29.91F FOG
DETROIT CITY   PTCLDY    56  46  69 SW5       29.95F
DETROIT        MOCLDY    48  44  86 S3        29.96F
FLINT          MOCLDY    49  44  83 SW5       29.94F
GROSSE ILE     PTCLDY    52  46  82 S5        29.94F
HILLSDALE      PTCLDY    46  46 100 CALM      29.95F FOG
HOWELL         PTCLDY    47  45  94 S5        29.93F FOG

CITY           SKY/WX    TMP DP  RH WIND       PRES   REMARKS
JACKSON        PTCLDY    46  44  93 SW5       29.94F FOG
LAMBERTVILLE   PTCLDY    50  45  81 SW3       29.96F
LANSING        PTCLDY    45  42  89 CALM      29.93F FOG
LAPEER         NOT AVBL
MASON            N/A     44  43  97 CALM      29.94S FOG
MONROE         PTCLDY    46  45  93 CALM      29.94F FOG
MT. CLEMENS    PTCLDY    53  48  82 SW6       29.92F
PONTIAC        PTCLDY    48  44  86 SW3       29.93F
PORT HOPE        N/A     46  44  93 CALM      29.88F
PORT HURON     PTCLDY    48  45  87 CALM      29.93F
TRI CITIES     PTCLDY    47  45  93 SW7       29.92F FOG
YPSILANTI      PTCLDY    50  44  80 SW3       29.96F HAZE
$$
MIZ043>046-050>051-056>058-064>065-071>073-077>080-250600-
SOUTHWEST LOWER MICHIGAN

CITY           SKY/WX    TMP DP  RH WIND       PRES   REMARKS
BATTLE CREEK   PTCLDY    46  42  86 S3        29.94F
BENTON HARBOR  CLOUDY    52  49  89 S6        29.93F
BIG RAPIDS     FOG       43  43 100 CALM      29.90F VSB 1/4
COLDWATER      PTCLDY    45  44  97 CALM      29.95F FOG
HOLLAND        MOCLDY    51  47  86 CALM      29.93S
GRAND RAPIDS   MOCLDY    45  43  93 CALM      29.92F FOG
KALAMAZOO      PTCLDY    45  43  93 CALM      29.94S FOG
MARSHALL       FOG       38  38  97 CALM      29.94S VSB 3/4
MUSKEGON       CLOUDY    48  46  93 CALM      29.91F FOG
$$
MIZ016>042-250600-
NORTHERN LOWER MICHIGAN

CITY           SKY/WX    TMP DP  RH WIND       PRES   REMARKS
ALPENA         PTCLDY    37  36  96 S3        29.84F
BEAVER ISLAND  CLOUDY    51  49  94 SW14G22   29.79F FOG
BELLAIRE       PTCLDY    47  46  93 S3        29.84F
CADILLAC       CLEAR     45  45 100 S6        29.87F FOG
CHARLEVOIX     MOCLDY    49  48  95 S8        29.84F
FRANKFORT      CLOUDY    52  48  86 S5        29.85F
GAYLORD        PTCLDY    46  45  96 S6        29.84F
GRAYLING       FOG       39  39 100 CALM      29.87F VSB 1/4
HARBOR SPRINGS PTCLDY    49  46  90 SW5       29.81F
HOUGHTON LAKE  CLOUDY    47  46  97 SW7       29.89F FOG
MANISTEE       CLOUDY    46  45  93 CALM      29.88F
OSCODA         PTCLDY    45  45 100 SW6       29.87F FOG
PELLSTON       PTCLDY    48  45  89 S5        29.80F
TRAVERSE CITY  CLEAR     49  45  86 CALM      29.83F
$$
MIZ007>008-015-250600-
EASTERN UPPER MICHIGAN

CITY           SKY/WX    TMP DP  RH WIND       PRES   REMARKS
KINROSS        CLOUDY    50  48  93 SW7       29.78F
MACKINAC ISLAN PTCLDY    49  48  96 S6        29.79F
NEWBERRY       CLOUDY    48  47  99 SW15G22   29.76S FOG
S. S. MARIE    CLOUDY    50  46  86 S8        29.76F
$$
MIZ004>006-011>014-085-250600-
CENTRAL UPPER MICHIGAN

CITY           SKY/WX    TMP DP  RH WIND       PRES   REMARKS
MANISTIQUE     FOG       49  49 100 SW9G17    29.77F VSB 1/4
ESCANABA       CLOUDY    52  46  82 SW12G17   29.76F
MENOMINEE      CLOUDY    52  48  87 SW9       29.78F
SAWYER-GWINN   PTCLDY    49  47  90 S9        29.71F
$$
MIZ001>003-009>011-084-250600-
WESTERN UPPER MICHIGAN

CITY           SKY/WX    TMP DP  RH WIND       PRES   REMARKS
IRON MOUNTAIN  PTCLDY    56  50  80 W7        29.75F
HOUGHTON       MOCLDY    59  48  67 W16G28    29.65F
COPPER HARBOR    N/A     58  48  69 VRB7      29.60F
IRONWOOD       MOCLDY    55  52  88 W10       29.74R
$$

ABBREVIATIONS USED IN REMARKS
   TC - TEMPERATURE IN CELSIUS
  WCI - WIND CHILL INDEX
   HX - HEAT INDEX
  VSB - VISIBILITY




USA.gov is the U.S. government's official web portal to all federal, state and local government web resources and services.